{"data":{"norad_id":66065,"epoch":"2026-09-20T14:30:10.992960Z","epoch_age_seconds":93983,"freshness":"FRESH","line1":"1 66065U 25235H   26263.60429390  .00021421  00000+0  64344-3 0  9995","line2":"2 66065  53.1596  59.2184 0001009  91.1443 268.9675 15.34394127 52778","mean_motion":15.34394127,"eccentricity":0.0001009,"inclination_deg":53.1596,"raan_deg":59.2184,"arg_perigee_deg":91.1443,"mean_anomaly_deg":268.9675,"bstar":0.00064344,"rev_number":5277,"period_min":93.848117290141,"perigee_km":462.03045351493,"apogee_km":463.41093859799,"semimajor_km":6840.8576960565,"source":"CELESTRAK","updated_at":"2026-09-21T09:00:35.795184Z"}}